• In Deutschland
  • Länderverzeichnis
  • Für 7 Tage
  • Wassertemperatur
  • Satellitenkarten
  • Wetterkarte
  • Widgets
  • user-avatar
    Anmelden

    Stündliche Wetter Coesfeld

    Heute, 21 September, Freitag

    Zeit Temperatur Niederschläge Wind Luftdruck Luftfeuchtigkeit
    00:00 +21°C° 0 mm 5 m/S 748 mmHg 58%
    01:00 +21°C° 0 mm 5 m/S 748 mmHg 58%
    02:00 +20°C° 0 mm 6 m/S 747 mmHg 59%
    03:00 +20°C° 0 mm 6 m/S 746 mmHg 59%
    04:00 +20°C° 0 mm 7 m/S 746 mmHg 58%
    05:00 +21°C° 0 mm 8 m/S 745 mmHg 57%
    06:00 +21°C° 0 mm 6 m/S 744 mmHg 53%
    07:00 +20°C° 0.5 mm 7 m/S 744 mmHg 60%
    08:00 +18°C° 0.5 mm 7 m/S 745 mmHg 67%
    09:00 +17°C° 0.5 mm 8 m/S 745 mmHg 73%
    10:00 +17°C° 0.4 mm 8 m/S 746 mmHg 69%
    11:00 +17°C° 0.4 mm 8 m/S 747 mmHg 64%
    12:00 +16°C° 0.4 mm 8 m/S 747 mmHg 59%
    13:00 +17°C° 0 mm 8 m/S 748 mmHg 53%
    14:00 +17°C° 0 mm 9 m/S 748 mmHg 47%
    15:00 +17°C° 0 mm 9 m/S 749 mmHg 41%
    16:00 +16°C° 0 mm 8 m/S 749 mmHg 44%
    17:00 +14°C° 0 mm 7 m/S 750 mmHg 47%
    18:00 +13°C° 0 mm 6 m/S 750 mmHg 49%
    19:00 +13°C° 0.1 mm 6 m/S 751 mmHg 53%
    20:00 +12°C° 0.1 mm 7 m/S 752 mmHg 56%
    21:00 +12°C° 0.1 mm 8 m/S 752 mmHg 59%
    22:00 +11°C° 0.2 mm 7 m/S 753 mmHg 63%
    23:00 +11°C° 0.2 mm 7 m/S 753 mmHg 68%

    Morgen, 22 September, Samstag

    Zeit Temperatur Niederschläge Wind Luftdruck Luftfeuchtigkeit
    00:00 +10°C° 0.2 mm 6 m/S 753 mmHg 72%
    01:00 +10°C° 0 mm 6 m/S 754 mmHg 74%
    02:00 +10°C° 0 mm 6 m/S 754 mmHg 76%
    03:00 +10°C° 0 mm 5 m/S 754 mmHg 77%
    04:00 +10°C° 0 mm 5 m/S 755 mmHg 78%
    05:00 +10°C° 0 mm 5 m/S 755 mmHg 78%
    06:00 +10°C° 0 mm 5 m/S 755 mmHg 78%
    07:00 +12°C° 0 mm 5 m/S 756 mmHg 73%
    08:00 +13°C° 0 mm 6 m/S 756 mmHg 68%
    09:00 +14°C° 0 mm 7 m/S 756 mmHg 62%
    10:00 +15°C° 0.1 mm 7 m/S 756 mmHg 59%
    11:00 +15°C° 0.1 mm 7 m/S 756 mmHg 56%
    12:00 +16°C° 0.1 mm 7 m/S 756 mmHg 52%
    13:00 +16°C° 0.2 mm 7 m/S 756 mmHg 53%
    14:00 +16°C° 0.2 mm 6 m/S 756 mmHg 54%
    15:00 +16°C° 0.2 mm 6 m/S 756 mmHg 54%
    16:00 +15°C° 0 mm 5 m/S 756 mmHg 58%
    17:00 +14°C° 0 mm 4 m/S 756 mmHg 61%
    18:00 +13°C° 0 mm 3 m/S 756 mmHg 65%
    19:00 +12°C° 0 mm 3 m/S 757 mmHg 68%
    20:00 +11°C° 0 mm 3 m/S 757 mmHg 71%
    21:00 +11°C° 0 mm 3 m/S 757 mmHg 74%
    22:00 +12°C° 0.1 mm 2 m/S 757 mmHg 76%
    23:00 +12°C° 0.1 mm 2 m/S 757 mmHg 77%

    übermorgen, 23 September, Sonntag

    Zeit Temperatur Niederschläge Wind Luftdruck Luftfeuchtigkeit
    00:00 +12°C° 0.1 mm 2 m/S 757 mmHg 78%
    01:00 +12°C° 0.1 mm 2 m/S 757 mmHg 81%
    02:00 +12°C° 0.1 mm 2 m/S 756 mmHg 83%
    03:00 +12°C° 0.1 mm 2 m/S 756 mmHg 86%
    04:00 +12°C° 0.2 mm 2 m/S 756 mmHg 87%
    05:00 +12°C° 0.2 mm 1 m/S 755 mmHg 88%
    06:00 +12°C° 0.2 mm 1 m/S 755 mmHg 89%
    07:00 +12°C° 0.2 mm 1 m/S 755 mmHg 88%
    08:00 +12°C° 0.2 mm 1 m/S 755 mmHg 86%
    09:00 +13°C° 0.2 mm 2 m/S 754 mmHg 85%
    10:00 +13°C° 0.2 mm 2 m/S 754 mmHg 85%
    11:00 +12°C° 0.2 mm 3 m/S 753 mmHg 85%
    12:00 +12°C° 0.2 mm 3 m/S 753 mmHg 85%
    13:00 +11°C° 1.2 mm 4 m/S 752 mmHg 87%
    14:00 +11°C° 1.2 mm 4 m/S 751 mmHg 88%
    15:00 +10°C° 1.2 mm 5 m/S 750 mmHg 89%
    16:00 +9°C° 3.6 mm 6 m/S 749 mmHg 90%
    17:00 +8°C° 3.6 mm 7 m/S 749 mmHg 90%
    18:00 +7°C° 3.6 mm 8 m/S 748 mmHg 90%
    19:00 +8°C° 2.1 mm 7 m/S 750 mmHg 89%
    20:00 +8°C° 2.1 mm 6 m/S 751 mmHg 89%
    21:00 +8°C° 2.1 mm 6 m/S 753 mmHg 89%
    22:00 +8°C° 0.1 mm 5 m/S 754 mmHg 88%
    23:00 +8°C° 0.1 mm 5 m/S 756 mmHg 87%

    24 September, Montag

    Zeit Temperatur Niederschläge Wind Luftdruck Luftfeuchtigkeit
    00:00 +8°C° 0.1 mm 4 m/S 757 mmHg 86%
    01:00 +7°C° 0 mm 4 m/S 758 mmHg 85%
    02:00 +7°C° 0 mm 4 m/S 759 mmHg 85%
    03:00 +6°C° 0 mm 4 m/S 760 mmHg 84%
    04:00 +7°C° 0 mm 3 m/S 761 mmHg 85%
    05:00 +7°C° 0 mm 3 m/S 762 mmHg 85%
    06:00 +7°C° 0 mm 3 m/S 763 mmHg 85%
    07:00 +8°C° 0 mm 4 m/S 763 mmHg 78%
    08:00 +11°C° 0 mm 4 m/S 764 mmHg 71%
    09:00 +12°C° 0 mm 5 m/S 765 mmHg 64%
    10:00 +13°C° 0.1 mm 5 m/S 765 mmHg 59%
    11:00 +13°C° 0.1 mm 6 m/S 766 mmHg 54%
    12:00 +14°C° 0.1 mm 6 m/S 766 mmHg 49%
    13:00 +14°C° 0 mm 6 m/S 766 mmHg 48%
    14:00 +14°C° 0 mm 6 m/S 766 mmHg 47%
    15:00 +14°C° 0 mm 6 m/S 767 mmHg 47%
    16:00 +12°C° 0 mm 5 m/S 767 mmHg 52%
    17:00 +11°C° 0 mm 4 m/S 768 mmHg 57%
    18:00 +9°C° 0 mm 3 m/S 768 mmHg 63%
    19:00 +9°C° 0 mm 3 m/S 769 mmHg 66%
    20:00 +8°C° 0 mm 2 m/S 769 mmHg 70%
    21:00 +8°C° 0 mm 2 m/S 770 mmHg 73%
    22:00 +7°C° 0 mm 2 m/S 770 mmHg 74%
    23:00 +7°C° 0 mm 2 m/S 770 mmHg 75%

    25 September, Dienstag

    Zeit Temperatur Niederschläge Wind Luftdruck Luftfeuchtigkeit
    00:00 +7°C° 0 mm 2 m/S 771 mmHg 77%
    01:00 +7°C° 0 mm 1 m/S 771 mmHg 77%
    02:00 +7°C° 0 mm 1 m/S 771 mmHg 78%
    03:00 +7°C° 0 mm 1 m/S 771 mmHg 78%
    04:00 +7°C° 0 mm 1 m/S 771 mmHg 78%
    05:00 +7°C° 0 mm 1 m/S 771 mmHg 78%
    06:00 +6°C° 0 mm 0 m/S 772 mmHg 78%
    07:00 +9°C° 0 mm 1 m/S 772 mmHg 71%
    08:00 +11°C° 0 mm 1 m/S 772 mmHg 63%
    09:00 +13°C° 0 mm 1 m/S 772 mmHg 56%
    10:00 +14°C° 0 mm 1 m/S 772 mmHg 52%
    11:00 +15°C° 0 mm 1 m/S 771 mmHg 47%
    12:00 +16°C° 0 mm 1 m/S 771 mmHg 43%
    13:00 +16°C° 0 mm 1 m/S 771 mmHg 42%
    14:00 +16°C° 0 mm 1 m/S 770 mmHg 42%
    15:00 +16°C° 0 mm 1 m/S 770 mmHg 41%
    16:00 +14°C° 0 mm 1 m/S 770 mmHg 46%
    17:00 +13°C° 0 mm 1 m/S 769 mmHg 50%
    18:00 +12°C° 0 mm 1 m/S 769 mmHg 55%
    19:00 +11°C° 0 mm 1 m/S 769 mmHg 56%
    20:00 +11°C° 0 mm 1 m/S 769 mmHg 58%
    21:00 +11°C° 0 mm 1 m/S 769 mmHg 59%
    22:00 +9°C° 0 mm 2 m/S 768 mmHg 60%
    23:00 +9°C° 0 mm 2 m/S 768 mmHg 61%

    26 September, Mittwoch

    Zeit Temperatur Niederschläge Wind Luftdruck Luftfeuchtigkeit
    00:00 +9°C° 0 mm 2 m/S 768 mmHg 62%
    01:00 +8°C° 0 mm 2 m/S 767 mmHg 62%
    02:00 +8°C° 0 mm 2 m/S 767 mmHg 62%
    03:00 +8°C° 0 mm 2 m/S 766 mmHg 61%
    04:00 +8°C° 0 mm 2 m/S 766 mmHg 61%
    05:00 +8°C° 0 mm 2 m/S 766 mmHg 61%
    06:00 +7°C° 0 mm 2 m/S 766 mmHg 61%
    07:00 +9°C° 0 mm 2 m/S 766 mmHg 56%
    08:00 +12°C° 0 mm 2 m/S 765 mmHg 50%
    09:00 +14°C° 0 mm 2 m/S 765 mmHg 45%
    10:00 +15°C° 0 mm 2 m/S 765 mmHg 41%
    11:00 +17°C° 0 mm 2 m/S 765 mmHg 37%
    12:00 +18°C° 0 mm 2 m/S 764 mmHg 34%
    13:00 +18°C° 0 mm 2 m/S 764 mmHg 34%
    14:00 +19°C° 0 mm 2 m/S 763 mmHg 35%
    15:00 +19°C° 0 mm 2 m/S 763 mmHg 36%
    16:00 +17°C° 0 mm 2 m/S 763 mmHg 40%
    17:00 +15°C° 0 mm 2 m/S 762 mmHg 44%
    18:00 +14°C° 0 mm 1 m/S 762 mmHg 47%
    19:00 +13°C° 0 mm 2 m/S 762 mmHg 49%
    20:00 +13°C° 0 mm 2 m/S 762 mmHg 50%
    21:00 +12°C° 0 mm 2 m/S 762 mmHg 51%
    22:00 +12°C° 0 mm 2 m/S 762 mmHg 54%
    23:00 +10°C° 0 mm 2 m/S 761 mmHg 57%
    Mehr zeigen